Shelbyville, IN

4:12 PM EDT on April 20, 2018 (GMT -0400)
Shelbyville Municipal

Weather History for KGEZ - June, 2014

Change the Weather History Date:

Monday, June 30, 2014

  Actual Average Record
Temperature  
Mean Temperature 78 °F 74 °F  
Max Temperature 87 °F 85 °F 97 °F (2012)
Min Temperature 69 °F 63 °F 53 °F (2000)
Degree Days  
Heating Degree Days 0 0  
Month to date heating degree days 1 11  
Since 1 June heating degree days 1 15  
Since 1 July heating degree days 5703 5410  
Cooling Degree Days 13 9  
Month to date cooling degree days 316 209  
Year to date cooling degree days 479 290  
Since 1 June cooling degree days 316 209  
Growing Degree Days 28 (Base 50)    
Moisture  
Dew Point 70 °F    
Average Humidity 80    
Maximum Humidity 90    
Minimum Humidity 70    
Precipitation  
Precipitation 0.11 in 0.11 in 1.73 in (2013)
Month to date precipitation 5.40 4.40  
Year to date precipitation 20.89 22.18  
Sea Level Pressure  
Sea Level Pressure 29.93 in    
Wind  
Wind Speed 9 mph (South)    
Max Wind Speed 22 mph    
Max Gust Speed 27 mph    
Visibility 9 miles    
Events Rain , Thunderstorm    
T = Trace of Precipitation, MM = Missing Value Source: NWS Daily Summary

Daily Weather History Graph

Daily Weather History Graph

Search for Another Location

Airport or City:

Astronomy

Jun. 30, 2014 Rise Set
Actual Time 6:18 AM EDT 9:14 PM EDT
Civil Twilight 5:46 AM EDT 9:47 PM EDT
Nautical Twilight 5:05 AM EDT 10:27 PM EDT
Astronomical Twilight 4:18 AM EDT 11:15 PM EDT
Moon 9:30 AM EDT (6/30) 11:08 PM EDT (6/30)
Length of Visible Light 16h 00m
Length of Day
14h 55m
Waxing Crescent, 10% of the Moon is Illuminated
Jun 30
Waxing Crescent
Jul 5
First Quarter
Jul 12
Full
Jul 18
Last Quarter
Jul 26
New

Hourly Weather History & Observations

Time (EDT) Temp. Heat Index Dew Point Humidity Pressure Visibility Wind Dir Wind Speed Gust Speed Precip Events Conditions
12:53 AM 73.9 °F - 70.0 °F 87% 29.98 in 10.0 mi South 9.2 mph - N/A   Clear
1:53 AM 73.0 °F - 70.0 °F 90% 29.98 in 7.0 mi South 8.1 mph - N/A   Clear
2:53 AM 73.0 °F - 69.1 °F 87% 29.96 in 9.0 mi South 8.1 mph - N/A   Clear
3:53 AM 72.0 °F - 68.0 °F 87% 29.99 in 10.0 mi South 5.8 mph - N/A   Clear
4:53 AM 72.0 °F - 68.0 °F 87% 29.96 in 10.0 mi South 9.2 mph - N/A   Clear
5:14 AM 72.0 °F - 68.0 °F 87% 30.00 in 10.0 mi South 6.9 mph - N/A   Mostly Cloudy
5:43 AM 72.0 °F - 68.0 °F 87% 30.00 in 10.0 mi South 8.1 mph - N/A   Overcast
5:53 AM 72.0 °F - 68.0 °F 87% 29.98 in 10.0 mi South 6.9 mph - N/A   Scattered Clouds
6:11 AM 72.0 °F - 68.0 °F 87% 30.00 in 10.0 mi South 6.9 mph - N/A   Mostly Cloudy
6:53 AM 72.0 °F - 68.0 °F 87% 29.95 in 9.0 mi SSE 10.4 mph - N/A   Scattered Clouds
7:42 AM 73.0 °F - 69.1 °F 87% 30.01 in 10.0 mi South 5.8 mph - N/A   Mostly Cloudy
7:53 AM 73.0 °F - 69.1 °F 87% 29.99 in 10.0 mi South 6.9 mph - N/A   Overcast
8:53 AM 73.9 °F - 69.1 °F 85% 29.99 in 10.0 mi South 5.8 mph - N/A   Overcast
9:15 AM 75.0 °F - 69.1 °F 82% 29.99 in 10.0 mi South 10.4 mph - N/A   Overcast
9:53 AM 75.9 °F - 70.0 °F 82% 29.97 in 10.0 mi South 9.2 mph - N/A   Overcast
10:53 AM 77.0 °F - 71.1 °F 82% 29.98 in 10.0 mi SSW 10.4 mph - N/A   Overcast
11:53 AM 78.1 °F - 71.1 °F 79% 29.98 in 9.0 mi SSW 9.2 mph - N/A   Overcast
12:23 PM 78.1 °F - 71.1 °F 79% 30.03 in 5.0 mi SSW 20.7 mph 27.6 mph N/A Thunderstorm Haze
12:32 PM 75.0 °F - 68.0 °F 79% 29.99 in 2.5 mi SSW 16.1 mph 27.6 mph 0.05 in Rain , Thunderstorm Light Rain
12:34 PM 73.9 °F - 66.9 °F 79% 29.99 in 3.0 mi SW 16.1 mph - 0.05 in Rain , Thunderstorm Light Thunderstorms and Rain
12:41 PM 72.0 °F - 66.0 °F 81% 29.98 in 5.0 mi SW 16.1 mph - 0.07 in Rain , Thunderstorm Light Thunderstorms and Rain
12:53 PM 71.1 °F - 64.9 °F 81% 29.93 in 10.0 mi South 13.8 mph - 0.07 in Rain Light Rain
1:19 PM 69.1 °F - 64.9 °F 87% 29.93 in 10.0 mi South 13.8 mph - 0.01 in Rain , Thunderstorm Light Rain
1:34 PM 69.1 °F - 64.9 °F 87% 29.89 in 10.0 mi South 15.0 mph - 0.03 in Rain , Thunderstorm Light Thunderstorms and Rain
1:53 PM 70.0 °F - 66.0 °F 87% 29.88 in 10.0 mi SW 10.4 mph - 0.03 in Rain Light Rain
2:53 PM 73.9 °F - 69.1 °F 85% 29.83 in 10.0 mi SSW 18.4 mph - 0.01 in   Clear
3:34 PM 79.0 °F - 70.0 °F 74% 29.88 in 10.0 mi NNE 4.6 mph - N/A   Mostly Cloudy
3:53 PM 80.1 °F 83.8 °F 72.0 °F 76% 29.85 in 10.0 mi SE 3.5 mph - N/A   Overcast
4:53 PM 84.9 °F 93.3 °F 75.0 °F 72% 29.83 in 10.0 mi South 11.5 mph - N/A   Mostly Cloudy
5:07 PM 84.9 °F 93.3 °F 75.0 °F 72% 29.85 in 10.0 mi SSW 9.2 mph - N/A   Overcast
5:53 PM 86.0 °F 96.0 °F 75.9 °F 72% 29.82 in 10.0 mi SSW 8.1 mph - N/A   Mostly Cloudy
6:53 PM 86.0 °F 96.0 °F 75.9 °F 72% 29.84 in 8.0 mi SSW 9.2 mph - N/A   Mostly Cloudy
7:53 PM 84.9 °F 93.3 °F 75.0 °F 72% 29.82 in 6.0 mi SSW 6.9 mph - N/A   Haze
8:53 PM 84.0 °F 91.9 °F 75.0 °F 74% 29.81 in 6.0 mi South 9.2 mph - N/A   Haze
9:53 PM 82.0 °F 87.9 °F 73.9 °F 76% 29.81 in 9.0 mi South 8.1 mph - N/A   Clear
10:53 PM 82.0 °F 87.4 °F 73.0 °F 74% 29.78 in 10.0 mi SSE 10.4 mph - N/A   Partly Cloudy
11:53 PM 81.0 °F 85.8 °F 73.0 °F 77% 29.81 in 10.0 mi SSW 5.8 mph - N/A   Overcast